Location: Bo?a Wola
(50.4192°N, 19.7966°E)
Time: 05:56:50
(UTC+00:00)

CZ-4C R/B - Pass Details

Date: 21 September 2024
Orbit: 519 x 1471 km, 63.4° (Epoch: 09 October)

Event Time Altitude Azimuth Distance (km) Brightness Sun altitude
Exits shadow 01:54:36 13° 310° (NW) 2,266 4.3 -23.6°
Maximum altitude 01:58:38 25° 0° (N) 1,823 4.2 -23.1°
Drops below altitude 10° 02:04:14 10° 54° (NE) 2,980 6.2 -22.3°
Sets 02:07:51 0° 66° (ENE) 4,115 7.3 -21.8°
